Location: Killam
(52.7910°N, 111.8608°W)
Time: 22:08:58
(UTC+00:00)

Vanguard 3 - Pass Details

Date: 25 February 2026
Orbit: 507 x 3205 km, 33.4° (Epoch: 11 March)

Event Time Altitude Azimuth Distance (km) Brightness Sun altitude
Rises 23:11:39 0° 246° (WSW) 6,354 13.4 13.8°
Reaches altitude 10° 23:17:22 10° 236° (SW) 4,878 14.8 13.1°
Maximum altitude 23:26:41 24° 190° (S) 2,968 10.8 12.0°
Drops below altitude 10° 23:33:03 10° 140° (SE) 3,213 10.2 11.2°
Sets 23:35:55 0° 126° (SE) 3,837 10.4 10.8°
